Flag for U.S.A. Weather past 2 weeks in Bakersfield, California, U.S.A.

Now
75 °F

Clear.


Feels Like: 76 °F
Forecast: 59 / 83 °F
Wind: No wind

Location: Meadows Field


UV Index: 7 (High)

Visibility: 10 mi


Pressure: 29.81 "Hg

Humidity: 22%

Dew point: 33 °F

Location of BakersfieldLocation

Historic Weather in Bakersfield

°F

Bakersfield temperature yesterday

Maximum temperature yesterday: 88 °F (at 3:54 PM)
Minimum temperature yesterday: 60 °F (at 4:54 AM)
Average temperature yesterday: 74 °F

Past Weeks' High & Low Weather Summary

 TemperatureHumidityPressure
High92 °F (Apr 8, 3:54 PM)89% (Apr 2, 3:54 AM)30.21 "Hg (Apr 2, 3:54 AM)
Low44 °F (Apr 3, 5:54 AM)8% (Apr 9, 3:54 PM)29.71 "Hg (Apr 11, 5:54 PM)
Average66 °F44%29.98 "Hg
* Reported Mar 31 7:54 PM — Apr 15 7:54 PM, Bakersfield, Weather by CustomWeather, © 2014

Note: Actual official high and low records may vary slightly from our data, if they occured in-between our weather recording intervals... More about our weather records

Advertising

Historic Weather Conditions — Data for Previous 24 hours

 ConditionsComfort  
Time TempWeatherWind HumidityBarometerVisibility
7:54 PM
Apr 15
79 °FSunny.5 mph17%29.79 "Hg10 mi
6:54 PM85 °FSunny.9 mph16%29.79 "Hg10 mi
5:54 PM86 °FSunny.10 mph17%29.79 "Hg10 mi
4:54 PM87 °FSunny.15 mph16%29.80 "Hg10 mi
3:54 PM87 °FSunny.12 mph16%29.83 "Hg10 mi
2:54 PM85 °FSunny.10 mph20%29.85 "Hg10 mi
1:54 PM84 °FSunny.8 mph21%29.88 "Hg10 mi
12:54 PM82 °FSunny.7 mph23%29.92 "Hg10 mi
11:54 AM78 °FSunny.6 mph29%29.95 "Hg10 mi
10:54 AM76 °FSunny.5 mph32%29.96 "Hg10 mi
9:54 AM73 °FSunny.No wind34%29.96 "Hg10 mi
8:54 AM70 °FSunny.5 mph35%29.97 "Hg10 mi
7:54 AM65 °FSunny.3 mph40%29.96 "Hg10 mi
6:54 AM62 °FClear.5 mph44%29.96 "Hg10 mi
5:54 AM65 °FClear.6 mph40%29.95 "Hg10 mi
4:54 AM64 °FClear.5 mph43%29.96 "Hg10 mi
3:54 AM66 °FClear.5 mph42%29.96 "Hg10 mi
2:54 AM67 °FClear.3 mph41%29.97 "Hg10 mi
1:54 AM68 °FClear.No wind38%29.98 "Hg10 mi
12:54 AM69 °FClear.5 mph33%29.99 "Hg10 mi
11:54 PM
Apr 14
70 °FClear.7 mph35%29.99 "Hg10 mi
10:54 PM73 °FClear.9 mph33%29.98 "Hg10 mi
9:54 PM78 °FClear.10 mph21%29.96 "Hg10 mi
Weather by CustomWeather, © 2014

See weather overview